Location: UBC Liquid-Mirror Observatory
(49.2876°N, 122.5728°W)
Time: 15:48:41
(UTC-07:00)

KITSAT 1 - Visible Passes

Search period start: 28 June 2017 00:00
Search period end: 08 July 2017 00:00
Orbit: 1308 x 1323 km, 66.1° (Epoch: 28 June)

Date Brightness Start Highest point End Pass type
(mag) Time Alt. Az. Time Alt. Az. Time Alt. Az.
28 Jun 12.1 02:37:29 10° SE 02:42:29 18° E 02:47:30 10° ENE visible
29 Jun 11.6 02:51:40 10° SSE 02:58:03 27° ESE 03:04:26 10° NE visible
30 Jun 11.2 03:06:38 10° S 03:13:44 38° ESE 03:20:59 10° NE visible
01 Jul 12.3 01:34:20 10° ESE 01:36:01 11° E 01:37:43 10° E visible
01 Jul 10.7 03:22:22 12° S 03:29:32 53° ESE 03:37:20 10° NE visible
02 Jul 12.0 01:46:36 10° SE 01:51:27 17° E 01:56:19 10° ENE visible
02 Jul 10.4 03:38:04 13° SSW 03:45:27 72° ESE 03:53:32 10° NE visible
03 Jul 11.5 02:01:46 13° SSE 02:07:00 26° ESE 02:13:20 10° NE visible
03 Jul 10.3 03:53:44 11° SW 04:01:30 87° NW 04:09:41 10° NE visible
04 Jul 11.1 02:17:23 18° SSE 02:22:42 37° ESE 02:29:54 10° NE visible
04 Jul 10.5 04:09:38 10° SW 04:17:40 67° NW 04:25:48 10° NE visible
05 Jul 12.2 00:44:01 10° ESE 00:45:01 10° E 00:46:01 10° E visible
05 Jul 10.7 02:32:59 20° S 02:38:29 52° ESE 02:46:15 10° NE visible
05 Jul 10.8 04:26:06 10° WSW 04:33:58 53° NW 04:41:54 10° NE visible
06 Jul 11.9 00:56:34 12° SE 01:00:26 17° E 01:05:10 10° ENE visible
06 Jul 10.3 02:48:32 20° SSW 02:54:24 70° ESE 03:02:28 10° NE visible
07 Jul 11.5 01:12:04 17° SE 01:15:59 25° ESE 01:22:13 10° NE visible
07 Jul 10.3 03:04:02 18° SW 03:10:26 88° WNW 03:18:37 10° NE visible
